Regional Weather Roundup
Issued by NWS

Home | Current Version | Previous Version | Graphics & Text | Print | Product List | Glossary On
Versions: 1 2 3 4 5 6 7 8 9 10 11 12 13 14 15 16 17 18 19 20 21 22 23 24 25 26 27 28 29 30 31 32 33 34 35 36 37 38 39 40 41 42 43 44 45 46 47 48 49 50
000
ASUS43 KLOT 271504
RWRIL

ILLINOIS REGIONAL WEATHER ROUNDUP
NATIONAL WEATHER SERVICE CHICAGO/ROMEOVILLE IL
1000 AM CDT THU JUL 27 2017

NOTE: "FAIR" INDICATES FEW OR NO CLOUDS BELOW 12,000 FEET WITH NO
SIGNIFICANT WEATHER AND/OR OBSTRUCTIONS TO VISIBILITY.

* THESE STATIONS ARE NOT UNDER NWS QUALITY CONTROL. THEY ALSO MAY NOT
  REPORT WEATHER SUCH AS PRECIPITATION OR FOG.

ILZ001-002-007-009-015-016-024-271600-
NORTHWEST ILLINOIS

CITY           SKY/WX    TMP DP  RH WIND       PRES   REMARKS
MOLINE         CLOUDY    75  70  84 NE7       29.97S
STERLING*      CLOUDY    75  71  87 NE6       29.97
SAVANNA*       PTSUNNY   77  72  82 N7        29.97S
$$

ILZ003-004-008-010-011-017-018-271600-
NORTH CENTRAL ILLINOIS

CITY           SKY/WX    TMP DP  RH WIND       PRES   REMARKS
ROCKFORD       PTSUNNY   80  70  71 NE10      29.98R HX  83
FREEPORT*      PTSUNNY   75  70  84 NE12      29.99S
ROCHELLE*      CLOUDY    73  71  92 NE8       29.98R
DE KALB*       CLOUDY    75  71  87 NE8       29.98R
PERU*          CLOUDY    74  70  88 NE5       29.96S
$$

ILZ005-006-012>014-019>023-271600-
NORTHEAST ILLINOIS

CITY           SKY/WX    TMP DP  RH WIND       PRES   REMARKS
CHICAGO-OHARE  PTSUNNY   79  68  69 NE12      29.94S HX  81
CHICAGO-MIDWAY PTSUNNY   79  70  74 NE14      29.93S HX  82
AURORA         PTSUNNY   80  73  79 NE10      29.95S HX  84
LANSING*       LGT RAIN  75  70  85 N3        29.94S
JOLIET*        PTSUNNY   81  74  79 SE3       29.94S HX  85
WAUKEGAN       PTSUNNY   75  70  84 N10       29.96R
DUPAGE AIRPORT PTSUNNY   79  72  79 N13       29.95R HX  82
KANKAKEE*      CLOUDY    75  72  88 CALM      29.95R
WHEELING       MOSUNNY   77  70  79 NE9G21    29.96S
MORRIS*        CLOUDY    75  71  88 CALM      29.94S
ROMEOVILLE*    MOSUNNY   79  70  73 CALM      29.94S HX  82
NORTHERLY ISL    N/A     75  69  81 N10         N/A
$$

LMZ740>746-271600-
SOUTHERN LAKE MICHIGAN

STATION/POSITION SKY/WX   TEMP    WIND        PRES    VSBY  WAVE
                          AIR SEA DIR/SP/G                  HT/PER
                          (F)     (DEG/KT/KT) (MB)    (MI)  (FT/S)
SOUTHERN BUOY              71 71   10/  8/ 10 1013.7          0
WILMETTE HARBOR            71 72  350/ 12/ 14   N/A           1/ 2
HARRISON CRIB              73     350/ 13/ 14   N/A
BURNHAM HARBOR             75                   N/A
CALUMET HARBOR             73     330/  8/ 14 1013.2R
BURNS HARBOR               74      70/  3/  6 1013.9
MICHIGAN CITY              75      CALM  /  1   N/A
MICHIGAN CITY 6N           75 76   CALM  /  2   N/A           0
ST. JOSEPH                 73 74   60/  4/  6 1013.1R         0
$$

ILZ025>027-034>036-040-047-049-050-058-095>099-271600-
WEST-CENTRAL ILLINOIS

CITY           SKY/WX    TMP DP  RH WIND       PRES   REMARKS
QUINCY         CLOUDY    76  74  93 NE8       29.94S FOG
GALESBURG*     CLOUDY    74  71  88 N5        29.98R
MACOMB*        CLOUDY    75  73  94 N5        29.98S
JACKSONVILLE*  LGT RAIN  74  73  97 SW5       29.94S
PITTSFIELD*    RAIN      75  74  98 SW3       29.95S
$$

ILZ028>032-037-038-041>044-048-051>054-059>061-271600-
CENTRAL ILLINOIS

CITY           SKY/WX    TMP DP  RH WIND       PRES   REMARKS
PONTIAC        CLOUDY    74  74  98 N5        29.95S
BLOOMINGTON    CLOUDY    75  73  93 W5        29.96S
DECATUR        LGT RAIN  75  73  93 SW8       29.95S FOG
PEORIA         CLOUDY    77  73  87 VRB5      29.94F
LACON*         CLOUDY    74  73  96 CALM      29.94S FOG
LINCOLN*       CLOUDY    78  77  94 SW5       29.94S HX  82
SPRINGFIELD    LGT RAIN  76  75  97 SW7       29.94F FOG
TAYLORVILLE    CLOUDY    74  74  98 SW3       29.96S
$$

ILZ033-039-045-046-055>057-062-063-271600-
EAST-CENTRAL ILLINOIS

CITY           SKY/WX    TMP DP  RH WIND       PRES   REMARKS
CHAMPAIGN      CLOUDY    76  73  91 W8        29.95F
RANTOUL*       CLOUDY    78  75  90 W6        29.94F HX  82
MATTOON        LGT RAIN  72  71  97 W9        29.95F FOG
PARIS*         CLOUDY    74  72  94 W14G20    29.97S
$$

ILZ079-100>102-271600-
SOUTHWEST ILLINOIS

CITY           SKY/WX    TMP DP  RH WIND       PRES   REMARKS
ALTON          CLOUDY    73  73 100 W6        29.97F
BELLEVILLE     DRIZZLE   75  75 100 CALM      29.98S
CAHOKIA*       CLOUDY    79  76  90 VRB3      29.96F HX  83
SPARTA*        RAIN      76  75  97 CALM      29.99S
$$

ILZ064>066-069>071-074>076-080>082-084>086-088>090-092>094-271600-
SOUTH-CENTRAL ILLINOIS

CITY           SKY/WX    TMP DP  RH WIND       PRES   REMARKS
CARBONDALE     CLOUDY    80  78  94 W5        29.97S HX  88
CAIRO*         CLOUDY    84  77  80 SW8       29.97F HX  93
EFFINGHAM*     CLOUDY    76  76  98 SW7       29.98S
MARION         CLOUDY    82  81  94 W6        29.98S HX  95
MT. VERNON     CLOUDY    76  74  93 S3        29.98S
CENTRALIA*     LGT RAIN  76  76  99 CALM      29.97R
SALEM*         LGT RAIN  77  74  90 NW3       29.97S
METROPOLIS*    PTSUNNY   83  76  80 SW6       29.98F HX  92
$$

ILZ067-068-072-073-078-083-087-091-271600-
SOUTHEAST ILLINOIS

CITY           SKY/WX    TMP DP  RH WIND       PRES   REMARKS
LAWRENCEVILLE  CLOUDY    77 N/A N/A SW7       29.97S
FLORA*         CLOUDY    78  74  88 CALM      29.97F HX  80
FAIRFIELD*     CLOUDY    74  74 100 CALM      29.97R
HARRISBURG*    PTSUNNY   81  77  88 CALM      29.97S HX  87
ROBINSON*      CLOUDY    74  73  96 W5        29.98R
CARMI*         LGT RAIN  76  75  96 CALM      29.97S
$$

ABBREVIATIONS USED IN REMARKS
   TC - TEMPERATURE IN CELSIUS
  WCI - WIND CHILL INDEX
   HX - HEAT INDEX
  VSB - VISIBILITY
$$





USA.gov is the U.S. government's official web portal to all federal, state and local government web resources and services.